Back to catalog

STARLINK-30947

AliveCommunicationsVLEO
NORAD 58473·PAYLOAD·🇺🇸 United States

Launched Dec 3, 2023 from Cape Canaveral Space Force Station

Loading…

Next Passes (next 24 hours)

TLE

FreshSource: CelesTrak SupGP

Epoch: Sep 14, 2026, 22:28 UTC

1 58473C 23186A   26257.93659722  .00066049  00000+0  23903-2 0  2572
2 58473  43.0015  78.4317 0001613 266.4048 230.9407 15.27572500    13

Track STARLINK-30947 in real time with AllMySat

Download on the App Store